EW3976 Weather Reports


time (UTC)temp
C
wind
direction
speed
KPH
gust
KPH
rain 1hr
cm
rain 24hr
cm
rain mn
cm
humidity
%
barometer
mb
20260507095516 13 338 3.2 4.8 0.00 0.00 0.00 90 1019.3
20260507094517 13 23 3.2 4.8 0.00 0.00 0.00 90 1019.3
20260507093517 13 0 4.8 6.4 0.00 0.00 0.00 89 1019.4
20260507092517 13 23 4.8 6.4 0.00 0.00 0.00 89 1019.5
20260507091504 13 45 3.2 6.4 0.00 0.00 0.00 89 1019.5
20260507090526 13 338 1.6 3.2 0.00 0.00 0.00 89 1019.6
20260507085517 13 23 3.2 4.8 0.00 0.00 0.00 89 1019.7
20260507084516 13 45 3.2 6.4 0.00 0.00 0.00 89 1019.7
20260507083517 13 45 4.8 6.4 0.00 0.00 0.00 89 1019.7
20260507082517 13 45 8.0 11.3 0.00 0.00 0.00 88 1019.7
20260507081520 13 0 1.6 3.2 0.00 0.00 0.00 89 1019.7
20260507080516 13 0 6.4 9.7 0.00 0.00 0.00 88 1019.7
20260507075516 14 23 4.8 8.0 0.00 0.00 0.00 88 1019.7
20260507074517 14 45 3.2 6.4 0.00 0.00 0.00 88 1019.6
20260507073516 13 23 3.2 3.2 0.00 0.00 0.00 88 1019.7
20260507072516 14 0 1.6 3.2 0.00 0.00 0.00 88 1019.7
20260507071516 13 0 3.2 4.8 0.00 0.00 0.00 88 1019.8
20260507070516 13 0 4.8 6.4 0.00 0.00 0.00 88 1019.8
20260507065519 13 315 6.4 8.0 0.00 0.00 0.00 88 1019.8
20260507064556 14 0 4.8 6.4 0.00 0.00 0.00 88 1019.8
20260507063516 14 23 6.4 9.7 0.00 0.00 0.00 88 1019.9
20260507062516 14 45 1.6 3.2 0.00 0.00 0.00 88 1019.8
20260507061517 14 0 4.8 8.0 0.00 0.00 0.00 88 1019.9
20260507060516 14 0 6.4 9.7 0.00 0.00 0.00 88 1019.9
20260507055516 14 23 8.0 11.3 0.00 0.00 0.00 88 1019.9
20260507054516 14 45 4.8 8.0 0.00 0.00 0.00 88 1019.8
20260507053516 14 45 4.8 6.4 0.00 0.00 0.00 88 1019.9
20260507052518 14 23 6.4 8.0 0.00 0.00 0.00 88 1019.9
20260507051556 14 45 4.8 8.0 0.00 0.00 0.00 88 1020.0
20260507050556 14 0 3.2 4.8 0.00 0.00 0.00 88 1020.0
20260507045526 14 23 4.8 6.4 0.00 0.00 0.00 87 1020.0
20260507044516 14 0.0 1.6 0.00 0.00 0.00 86 1020.0
20260507043556 15 0 4.8 9.7 0.00 0.00 0.00 86 1019.9
20260507042517 15 0 4.8 8.0 0.00 0.00 0.00 85 1019.7
20260507041516 15 0 1.6 3.2 0.00 0.00 0.00 85 1019.6
20260507040516 15 23 6.4 11.3 0.00 0.00 0.00 85 1019.6
20260507035516 15 23 4.8 8.0 0.00 0.00 0.00 84 1019.5
20260507034516 15 23 9.7 12.9 0.00 0.00 0.00 84 1019.3
20260507033516 15 23 12.9 17.7 0.00 0.00 0.00 83 1019.2
20260507032516 16 338 9.7 11.3 0.00 0.00 0.00 82 1019.0
20260507031516 16 338 4.8 9.7 0.00 0.00 0.00 82 1018.8
20260507030516 16 0 9.7 14.5 0.00 0.00 0.00 81 1018.6
20260507025515 17 23 8.0 12.9 0.00 0.00 0.00 79 1018.5
20260507024556 17 338 9.7 12.9 0.00 0.00 0.00 78 1018.3
20260507023556 18 45 4.8 6.4 0.00 0.00 0.00 77 1018.2
20260507022516 18 0 11.3 14.5 0.00 0.00 0.00 75 1018.1
20260507021516 18 0 8.0 11.3 0.00 0.00 0.00 74 1018.1
20260507020516 19 0 11.3 19.3 0.00 0.00 0.00 72 1018.0
20260507015516 19 0 11.3 19.3 0.00 0.00 0.00 71 1018.0
20260507014516 20 23 9.7 14.5 0.00 0.00 0.00 69 1018.0
20260507013517 20 0 11.3 22.5 0.00 0.00 0.00 68 1018.0
20260507012516 20 23 12.9 16.1 0.00 0.00 0.00 66 1017.8
20260507011515 21 0 12.9 20.9 0.00 0.00 0.00 65 1017.8
20260507010516 21 338 8.0 17.7 0.00 0.00 0.00 65 1017.8
20260507005517 21 315 14.5 20.9 0.00 0.00 0.00 64 1017.8
20260507004556 21 338 12.9 17.7 0.00 0.00 0.00 63 1017.8
20260507003516 21 338 12.9 20.9 0.00 0.00 0.00 63 1017.8
20260507002516 22 0 16.1 24.1 0.00 0.00 0.00 61 1017.7
20260507001516 22 338 8.0 12.9 0.00 0.00 0.00 62 1017.8
20260507000515 22 45 9.7 16.1 0.00 0.00 0.00 62 1017.7
20260506235516 22 0 9.7 14.5 0.00 0.00 0.00 61 1017.7
20260506233515 22 315 9.7 12.9 0.00 0.00 0.00 60 1017.8
20260506232515 22 45 8.0 12.9 0.00 0.00 0.00 62 1017.8
20260506231516 22 338 8.0 12.9 0.00 0.00 0.00 62 1017.8
20260506230516 22 0 11.3 19.3 0.00 0.00 0.00 61 1018.0
20260506225516 22 0 11.3 16.1 0.00 0.00 0.00 60 1018.1
20260506224515 22 0 12.9 17.7 0.00 0.00 0.00 59 1018.1
20260506223516 22 0 11.3 17.7 0.00 0.00 0.00 59 1018.2
20260506222516 23 315 9.7 11.3 0.00 0.00 0.00 58 1018.3
20260506221516 23 315 11.3 14.5 0.00 0.00 0.00 58 1018.3
20260506220555 22 315 8.0 11.3 0.00 0.00 0.00 58 1018.5
20260506215515 23 338 6.4 12.9 0.00 0.00 0.00 57 1018.6
20260506214515 22 315 3.2 6.4 0.00 0.00 0.00 59 1018.8
20260506213515 22 225 1.6 3.2 0.00 0.00 0.00 59 1018.8
20260506212515 22 338 4.8 8.0 0.00 0.00 0.00 60 1019.1
20260506211515 21 293 12.9 17.7 0.00 0.00 0.00 60 1019.1
20260506210516 21 45 9.7 14.5 0.00 0.00 0.00 61 1019.3
20260506205557 21 338 8.0 14.5 0.00 0.00 0.00 61 1019.3
20260506204516 21 315 6.4 9.7 0.00 0.00 0.00 62 1019.4
20260506203516 21 315 9.7 12.9 0.00 0.00 0.00 62 1019.6
20260506202515 20 0 6.4 11.3 0.00 0.00 0.00 62 1019.7
20260506201515 21 0 9.7 12.9 0.00 0.00 0.00 62 1019.9
20260506200515 20 315 6.4 9.7 0.00 0.00 0.00 65 1019.9
20260506195515 20 0 8.0 12.9 0.00 0.00 0.00 64 1019.9
20260506194555 20 68 8.0 20.9 0.00 0.00 0.00 65 1020.1
20260506193555 19 293 6.4 9.7 0.00 0.00 0.00 66 1020.1
20260506192555 20 338 6.4 9.7 0.00 0.00 0.00 66 1020.3
20260506191515 19 315 3.2 8.0 0.00 0.00 0.00 68 1020.3
20260506190517 19 23 6.4 9.7 0.00 0.00 0.00 68 1020.4
20260506185555 18 23 4.8 9.7 0.00 0.00 0.00 69 1020.4
20260506184515 18 113 6.4 11.3 0.00 0.00 0.00 69 1020.6
20260506183515 18 0 4.8 6.4 0.00 0.00 0.00 69 1020.7
20260506182515 18 0 4.8 9.7 0.00 0.00 0.00 72 1020.7
20260506181516 17 293 6.4 11.3 0.00 0.00 0.00 72 1020.8
20260506180516 17 135 1.6 3.2 0.00 0.00 0.00 72 1020.8
20260506175515 17 315 9.7 16.1 0.00 0.00 0.00 73 1020.8
20260506174515 16 270 6.4 9.7 0.00 0.00 0.00 74 1020.8
20260506173518 16 270 4.8 8.0 0.00 0.00 0.00 73 1020.8
20260506172515 16 0 3.2 6.4 0.00 0.00 0.00 76 1020.9
20260506171516 16 45 4.8 11.3 0.00 0.00 0.00 76 1020.9
20260506170555 16 293 4.8 8.0 0.00 0.00 0.00 77 1021.0
20260506165515 15 293 3.2 4.8 0.00 0.00 0.00 78 1021.0
20260506164519 15 315 4.8 8.0 0.00 0.00 0.00 78 1021.0
20260506163515 15 293 4.8 6.4 0.00 0.00 0.00 78 1021.0
20260506162515 15 293 6.4 8.0 0.00 0.00 0.00 78 1021.1
20260506161516 15 293 6.4 9.7 0.00 0.00 0.00 78 1021.0
20260506160515 15 338 8.0 9.7 0.00 0.00 0.00 79 1021.0
20260506155515 15 315 4.8 8.0 0.00 0.00 0.00 80 1021.0
20260506154517 15 0 4.8 8.0 0.00 0.00 0.00 81 1021.0
20260506153517 14 338 3.2 4.8 0.00 0.00 0.00 82 1021.0
20260506152515 14 315 3.2 6.4 0.00 0.00 0.00 82 1021.0
20260506151517 14 315 3.2 6.4 0.00 0.00 0.00 83 1021.0
20260506150515 14 293 1.6 3.2 0.00 0.00 0.00 83 1021.0
20260506145515 13 293 4.8 6.4 0.00 0.00 0.00 83 1021.0
20260506144515 13 315 3.2 6.4 0.00 0.00 0.00 84 1021.0
20260506143515 13 338 3.2 4.8 0.00 0.00 0.00 84 1020.9
20260506142515 13 315 6.4 8.0 0.00 0.00 0.00 83 1020.9
20260506141517 13 0.0 1.6 0.00 0.00 0.00 84 1020.9
20260506140517 13 293 3.2 4.8 0.00 0.00 0.00 84 1020.8
20260506135519 13 315 1.6 4.8 0.00 0.00 0.00 84 1020.6
20260506134520 13 315 3.2 4.8 0.00 0.00 0.00 84 1020.4
20260506133517 13 293 3.2 4.8 0.00 0.00 0.00 84 1020.2
20260506132517 13 315 4.8 6.4 0.00 0.00 0.00 84 1020.1
20260506131517 13 315 3.2 6.4 0.00 0.00 0.00 84 1020.1
20260506130520 13 315 4.8 6.4 0.00 0.00 0.00 84 1020.0
20260506125557 13 315 3.2 4.8 0.00 0.00 0.00 83 1019.9
20260506124516 13 338 1.6 1.6 0.00 0.00 0.00 83 1019.8
20260506123517 13 338 1.6 3.2 0.00 0.00 0.00 83 1019.9
20260506122517 13 338 1.6 3.2 0.00 0.00 0.00 83 1019.8
20260506121558 13 23 3.2 4.8 0.00 0.00 0.00 83 1019.8
20260506120517 13 0 3.2 3.2 0.00 0.00 0.00 83 1019.8
20260506115517 13 0 1.6 3.2 0.00 0.00 0.00 83 1019.7
20260506114517 13 338 3.2 6.4 0.00 0.00 0.00 83 1019.6
20260506113516 13 338 1.6 1.6 0.00 0.00 0.00 83 1019.6
20260506112517 13 338 3.2 3.2 0.00 0.00 0.00 83 1019.5
20260506111600 13 0.0 0.0 0.00 0.00 0.00 83 1019.5
20260506110517 13 0.0 0.0 0.00 0.00 0.00 83 1019.4
20260506105517 13 293 1.6 1.6 0.00 0.00 0.00 83 1019.4
20260506104557 13 0.0 1.6 0.00 0.00 0.00 83 1019.3
20260506103516 13 293 1.6 3.2 0.00 0.00 0.00 83 1019.3
20260506102516 13 0.0 0.0 0.00 0.00 0.00 83 1019.3
20260506101517 13 293 3.2 3.2 0.00 0.00 0.00 83 1019.3
20260506100517 13 0.0 0.0 0.00 0.00 0.00 83 1019.3